Regional Weather Roundup
Issued by NWS Albany, NY

Home | Current Version | Previous Version | Text Only | Print | Product List | Glossary On
Versions: 1 2 3 4 5 6 7 8 9 10 11 12 13 14 15 16 17 18 19 20 21 22 23 24 25 26 27 28
000
ASUS41 KALY 291810
RWRALY

NEW YORK STATE HOURLY WEATHER ROUNDUP
NATIONAL WEATHER SERVICE ALBANY NY
200 PM EDT FRI APR 29 2016

NOTE: "FAIR" INDICATES FEW OR NO CLOUDS BELOW 12,000 FEET WITH NO
SIGNIFICANT WEATHER AND/OR NO OBSTRUCTIONS TO VISIBILITY.

NYZ032-033-038>043-046>054-057>066-NYZ062>081-082-084-291900-
EAST


CITY           SKY/WX    TMP DP  RH WIND       PRES   REMARKS
ALBANY         PTSUNNY   58  35  42 S12G18    30.06F
GLENS FALLS    SUNNY     58  33  39 SE6       30.06F
POUGHKEEPSIE   CLOUDY    57  27  31 S12       30.07F
NEWBURGH       PTSUNNY   55  34  44 E14       30.08F
MONTGOMERY     CLOUDY    56  33  42 S7        30.06F
WHITE PLAINS   PTSUNNY   54  33  45 SE9G17    30.08F
ISLIP          CLOUDY    54  28  36 SE14      30.10F
NEW YORK CITY  CLOUDY    57  28  33 E10G20    30.09F
CENTRAL PARK   CLOUDY    56  33  42 MISG      30.11F
$$

NYZ005>009-017-018-044>046-055-056-291900-
CENTRAL


CITY           SKY/WX    TMP DP  RH WIND       PRES   REMARKS
FULTON         CLOUDY    58  33  39 VRB5      30.04F
SYRACUSE       LGT RAIN  51  38  60 SE7       30.05S
ROME           CLOUDY    55  35  47 SW9       30.06S
ELMIRA         CLOUDY    52  39  61 SW6       30.03R
BINGHAMTON     CLOUDY    50  32  50 S9        30.02S
MONTICELLO     CLOUDY    52  28  40 SE9G17    30.07S
$$

NYZ026>034-041>043-087-291900-
NORTH


CITY           SKY/WX    TMP DP  RH WIND       PRES   REMARKS
WATERTOWN      SUNNY     57  27  31 N9        30.06S
FORT DRUM      NOT AVBL
MASSENA        SUNNY     52  17  25 NE13      30.12F
SARANAC LAKE   SUNNY     54  16  22 SW5       30.02F
PLATTSBURGH    SUNNY     51  22  31 VRB6      30.11F
$$

NYZ001>004-010>016-019>021-085-291900-
WEST


CITY           SKY/WX    TMP DP  RH WIND       PRES   REMARKS
NIAGARA FALLS  PTSUNNY   51  30  44 NE16      30.04S
BUFFALO        CLOUDY    49  34  56 NE15      30.02F
DUNKIRK        CLOUDY    49  34  56 N12       30.02S
JAMESTOWN      CLOUDY    46  41  81 E3        29.98S
WELLSVILLE     CLOUDY    44  42  93 E6        30.01R FOG
ROCHESTER      CLOUDY    46  31  55 NE12      30.07R
PENN YAN       CLOUDY    49  36  61 CALM      30.04R
$$

             KEY
       WCI = WIND CHILL INDEX
       VSB = VISIBILITY
       HX  = HEAT INDEX
$$




USA.gov is the U.S. government's official web portal to all federal, state and local government web resources and services.